Terug naar catalogus

STARLINK-34054

ActiefCommunicatieVLEO
NORAD 64141·PAYLOAD·🇺🇸 United States

Gelanceerd May 24, 2025 vanaf Cape Canaveral Space Force Station

Loading…

Volgende Passages (komende 24 uur)

TLE

VersSource: CelesTrak SupGP

Epoch: Sep 14, 2026, 20:43 UTC

1 64141C 25111U   26257.86368056 -.00079899  00000+0 -28948-2 0  2573
2 64141  43.0024  89.4428 0001150 265.5027 177.0345 15.27608827    14

Volg STARLINK-34054 in realtime met AllMySat

Download on the App Store